Regional Weather Roundup
Issued by NWS Jackson, KY

Home | Current Version | Previous Version | Text Only | Print | Product List | Glossary Off
Versions: 1 2 3 4 5 6 7 8 9 10 11 12 13 14 15 16 17 18 19 20 21 22 23 24 25 26 27

000
ASUS43 KJKL 160410
RWRJKL

EAST KENTUCKY HOURLY WEATHER ROUNDUP
NATIONAL WEATHER SERVICE JACKSON KY
1100 PM EST FRI DEC 15 2017

NOTE: "FAIR" INDICATES FEW OR NO CLOUDS BELOW 12,000 FEET WITH
NO SIGNIFICANT WEATHER AND/OR OBSTRUCTIONS TO VISIBILITY.

* THESE REPORTS ARE NOT UNDER NWS QUALITY CONTROL AND MAY NOT
  REPORT WEATHER SUCH AS PRECIPITATION AND FOG.

KYZ079-080-083-085-087-088-110-112-115-119-120-160500
...EASTERN KENTUCKY...

CITY           SKY/WX    TMP DP  RH WIND       PRES   REMARKS
JACKSON        CLOUDY    31  21  66 SW3       30.13R
LONDON         CLOUDY    32  20  61 SW5       30.16S WCI  27
SOMERSET*      CLOUDY    34  21  60 SW6       30.20R WCI  29
MONTICELLO*    CLOUDY    34  23  64 W12       30.20S WCI  25
WILLIAMSBURG*  CLOUDY    32  21  64 W5        30.18S WCI  27
MIDDLESBORO*   CLOUDY    30  24  77 CALM      30.19F
HARLAN APT*    CLOUDY    30  21  69 CALM      30.16F
PIKE CO APT*   CLOUDY    31  20  64 S3        30.13S
BIG SANDY APT* CLOUDY    32  21  64 SW6       30.13S WCI  26
MOREHEAD APT*  CLOUDY    32  19  59 SW10G16   30.14R WCI  24
$$

KYZ035-036-041-042-044-050-067-078-099-160500
...CENTRAL KENTUCKY...

CITY           SKY/WX    TMP DP  RH WIND       PRES   REMARKS
MT STERLING*   CLOUDY    32  23  69 SW8       30.15R WCI  25
FLEMING/MASON* MOCLDY    29  22  74 SW6       30.13R WCI  23
DANVILLE*      PTCLDY    30  21  69 SW6       30.16R WCI  24
LEXINGTON      CLEAR     30  21  69 S8        30.13R WCI  22
FRANKFORT      CLEAR     30  20  66 S6        30.12S WCI  24
LOUISVILLE     CLOUDY    35  24  64 S5        30.14R WCI  31
LEBANON*         N/A     36  23  60 S10       30.15S WCI  28
GLASGOW*       MOCLDY    34  23  64 S3        30.18R
BOWLING GREEN  CLOUDY    34  23  64 S7        30.18R WCI  28
$$

KYZ091>093-OHZ055-061-077-WVZ005-015-034-035-042-160500
...SOUTHERN OHIO/WEST VIRGINIA...

CITY           SKY/WX    TMP DP  RH WIND       PRES   REMARKS
COVINGTON      CLOUDY    32  23  69 SW7       30.08S WCI  26
COLUMBUS       CLOUDY    30  21  69 SW10      30.06R WCI  21
DAYTON         CLOUDY    29  22  75 SW13      30.05S WCI  19
WILMINGTON     CLOUDY    28  22  78 SW8       30.06S WCI  20
HUNTINGTON     CLOUDY    32  19  58 SW6       30.12R WCI  26
CHARLESTON     CLOUDY    32  19  58 SW7       30.11S WCI  26
PINEVILLE*       N/A     31  20  64 MISG      30.15R
BECKLEY        CLOUDY    26  17  68 W10G22    30.05R WCI  16
BLUEFIELD      CLOUDY    24  15  68 W15G24    30.04R WCI  11
LOGAN CO APT*  CLOUDY    30  19  64 SW9       30.10S WCI  22
$$

VAZ002-007-008-TNZ017-027-036-066-071-160500
...SOUTHWEST VIRGINIA/EAST TENNESSEE...

CITY           SKY/WX    TMP DP  RH WIND       PRES   REMARKS
WISE*          CLOUDY    30  21  69 W8G17     30.10S WCI  23
JONESVILLE*    CLOUDY    30  23  74 CALM      30.20S
ABINGDON*      CLOUDY    30  21  68 W9        30.14R WCI  22
BRISTOL        CLOUDY    31  24  75 SW7       30.18R WCI  24
MORRISTOWN*    CLOUDY    30  23  74 SW8       30.20R WCI  23
SEVIERVILLE*   CLOUDY    27  23  86 CALM      30.24R
KNOXVILLE      CLOUDY    27  24  89 S6        30.24R WCI  20
LAFOLLETTE*    CLOUDY    28  23  80 CALM      30.24R
OAK RIDGE      CLOUDY    30  23  75 CALM      30.24R
CROSSVILLE     PTCLDY    26  19  74 SW6       30.18S WCI  19
NASHVILLE      CLEAR     28  22  78 S8        30.20F WCI  20
$$

...KEY TO REMARKS...
VSB - VISIBILITY IN MILES
WCI - WIND CHILL INDEX
HX  - HEAT INDEX

$$




USA.gov is the U.S. government's official web portal to all federal, state and local government web resources and services.